AirNav   Air Wisconsin pilot careers
 
 955 users online  

F89 Winnsboro Municipal Airport
Winnsboro, Louisiana, USA

GOING TO WINNSBORO?


FAA INFORMATION EFFECTIVE 16 AUGUST 2018

Location

FAA Identifier: F89
Lat/Long: 32-09-10.8250N / 091-41-54.8050W
32-09.180417N / 091-41.913417W
32.1530069 / -91.6985569
(estimated)
Elevation: 78 ft. / 23.8 m (surveyed)
Variation: 04E (1985)
From city: 1 mile E of WINNSBORO, LA
Time zone: UTC -5 (UTC -6 during Standard Time)
Zip code: 71295

Airport Operations

Airport use: Open to the public
Activation date: 06/1945
Control tower: no
ARTCC: FORT WORTH CENTER
FSS: DE RIDDER FLIGHT SERVICE STATION
NOTAMs facility: DRI (NOTAM-D service available)
Attendance: ON CALL
318-282-4524
Wind indicator: lighted
Segmented circle: no
Lights: MIRL RWY 18-36 PRESET LOW INTS DUSK TO DAWN, TO INCREASE INTS ACTIVATE-CTAF.
Beacon: white-green (lighted land airport)
Operates sunset to sunrise.

Airport Communications

CTAF/UNICOM: 122.8

Nearby radio navigation aids

VOR radial/distance  VOR name  Freq  Var
MLUr139/27.7MONROE VORTAC117.2003E
HEZr325/38.0NATCHEZ VOR/DME110.0003E

 
NDB name  Hdg/Dist  Freq  Var  ID
NATCHEZ-ADAMS COUNTY323/34.638800EHAH .... .- ....
TALLULAH259/34.634402ETKH - -.- ....
BASTROP162/37.332903EBQP -... --.- .--.

Airport Services

Fuel available: 100LL
FUEL AVBL 24 HRS SELF SERVE WITH CREDIT CARD.
Parking: tiedowns
Airframe service: MINOR
Powerplant service: MINOR
Bottled oxygen: NONE
Bulk oxygen: NONE

Runway Information

Runway 18/36

Dimensions: 3000 x 75 ft. / 914 x 23 m
Surface: asphalt, in fair condition
Weight bearing capacity: 
Single wheel: 11.0
Runway edge lights: medium intensity
RUNWAY 18  RUNWAY 36
Latitude: 32-09.427833N32-08.933000N
Longitude: 091-41.910833W091-41.916000W
Elevation: 76.0 ft.78.0 ft.
Gradient: 0.1%0.1%
Traffic pattern: leftleft
Runway heading: 176 magnetic, 180 true356 magnetic, 000 true
Markings: basic, in fair conditionbasic, in fair condition
Visual slope indicator: 2-light PAPI on left (3.75 degrees glide path)2-light PAPI on left (3.10 degrees glide path)
Runway end identifier lights: yes
Obstructions: 39 ft. trees, 1100 ft. from runway, 151 ft. right of centerline, 23:1 slope to clear48 ft. tree, 1000 ft. from runway, 194 ft. right of centerline, 16:1 slope to clear

Airport Ownership and Management from official FAA records

Ownership: Publicly-owned
Owner: CITY OF WINNSBORO
PO BOX 250
WINNSBORO, LA 71295
Phone 318-435-9087
Manager: TRAVIS SHIRLEY
PO BOX 250
WINNSBORO, LA 71295
Phone (318) 439-1279

Airport Operational Statistics

Aircraft based on the field: 25
Single engine airplanes: 24
Multi engine airplanes: 1
    
Aircraft operations: avg 68/day *
80% local general aviation
20% transient general aviation
* for 12-month period ending 01 March 2018

Additional Remarks

HEAVY AGRI ACFT OPS JUNE THRU OCT.
RY 18/36 TREES WEST OF RY OBSTRUCT VIEW OF OPERATING ACFT.

Instrument Procedures

There are no published instrument procedures at F89.

Some nearby airports with instrument procedures:

M79 - John H Hooks Jr Memorial Airport (20 nm N)
KMLU - Monroe Regional Airport (28 nm NW)
KTVR - Vicksburg Tallulah Regional Airport (36 nm E)
0R4 - Concordia Parish Airport (37 nm S)
KBQP - Morehouse Memorial Airport (37 nm N)
 
Loc | Ops | Rwys | IFR | FBO | Links
Com | Nav | Svcs | Stats | Notes


 
Area around F89 (Winnsboro Municipal Airport)
 
Road maps at: MapQuest Bing Google
 
Aerial photo
WARNING: Photo may not be current or correct
Aerial photo of F89 (Winnsboro Municipal Airport)
Do you have a better or more recent aerial photo of Winnsboro Municipal Airport that you would like to share? If so, please send us your photo.

 
Sectional chart

 
Airport distance calculator
Flying to Winnsboro Municipal Airport? Find the distance to fly.

From to F89

Sunrise and sunset
Times for 20-Aug-2018
 Local
(UTC-5)
 Zulu
(UTC)
Morning civil twilight06:1011:10
Sunrise06:3511:35
Sunset19:4500:45
Evening civil twilight20:1001:10

Current date and time
Zulu (UTC)  21-Aug-2018 02:44:53
Local (UTC-5)  20-Aug-2018 21:44:53
 
METAR
KMLU 
28nm NW 
210226Z 09003KT 10SM VCTS BKN065 BKN075 OVC100 24/23 A2997 RMK AO2 LTG DSNT ALQDS RAE20 TSE20 T02390228 PNO $
KTVR 
36nm E 
210240Z AUTO 22004KT 10SM FEW095 22/22 A2998 RMK AO2 LTG DSNT E AND SW AND W RAE24 TSB0155E20 PRESRR P0002 T02170217
K0R4 
37nm S 
210235Z AUTO 17007KT 10SM CLR 26/24 A2998 RMK AO2 LTG DSNT N AND NW T02640243
KBQP 
37nm N 
210235Z AUTO 20008G16KT 10SM VCTS BKN050 BKN080 BKN095 23/23 A2996 RMK AO2 LTG DSNT SE THRU SW T02320229
KHEZ 
39nm SE 
210156Z AUTO 19007KT 10SM CLR 28/23 A2998 RMK AO2 SLP152 T02780233
KVKS 
39nm E 
210235Z AUTO 13007G12KT 10SM FEW003 BKN035 OVC120 23/22 A2998 RMK A01
KRSN 
50nm NW 
210235Z AUTO 00000KT 10SM BKN050 BKN060 BKN070 24/22 A2998 RMK AO2 T02430224 TSNO
TAF
KMLU 
28nm NW 
210148Z 2102/2124 19008KT P6SM -TSRA SCT025 SCT080CB BKN100 FM210300 25004KT P6SM SCT050 FM211400 28009KT P6SM SKC
NOTAMs
Click for the latest NOTAMs
NOTAMs are issued by the DoD/FAA and will open in a separate window not controlled by AirNav.

 

 
 

FBO, Fuel Providers, and Aircraft Ground Support

  
 Business Name 
 
 Contact 
 
 Services / Description 
 
Fuel Prices
 
Comments
  
Southern Air 318-282-4524
no information available

If you are affiliated with Southern Air and would like to show here your services, contact info, web link, logo, and more, click here
100LL
SS $3.95 
 Updated 20-Aug-2018
 
   2 read write
SS=Self service
Update Fuel Prices
 

Would you like to see your business listed on this page?

 If your business provides an interesting product or service to pilots, flight crews, aircraft, or users of the Winnsboro Municipal Airport, you should consider listing it here.  To start the listing process, click on the button below
 
Add a business
 

Other Pages about Winnsboro Municipal Airport

Update a link
 
Copyright © AirNav, LLC. All rights reserved. Privacy Policy  Contact